Home > Time Zones > World Clock > Weather > Italy > Milan > Past weeks

Flag for Italy Weather past 2 weeks in Milan, Italy

Now
43 °F

Clear.


Feels Like: 39 °F
Forecast: 32 / 44 °F
Wind: 7 mph from North

Location: Milan / Linate

Current Time: Jan 25, 2015 at 8:20:41 PM

Latest Report: Jan 25, 2015 at 7:50 PM


Visibility: 10 mi

Pressure: 30.09 "Hg

Humidity: 31%

Dew point: 14 °F

Location of MilanLocation

Historic Weather in Milan — Graph

°F

Milan temperature yesterday

Maximum temperature yesterday: 52 °F (at 2:50 PM)
Minimum temperature yesterday: 30 °F (at 4:50 AM)
Average temperature yesterday: 39 °F

Past Weeks' High & Low Weather Summary

 TemperatureHumidityPressure
High61 °F (Jan 11, 2:20 PM)100% (Jan 10, 6:50 PM)30.39 "Hg (Jan 10, 6:50 PM)
Low28 °F (Jan 25, 5:20 AM)16% (Jan 11, 2:50 PM)29.77 "Hg (Jan 23, 4:50 AM)
Average41 °F87%30.01 "Hg
* Reported Jan 10 6:20 PM — Jan 25 6:50 PM, Milan, Weather by CustomWeather, © 2014

Note: Actual official high and low records may vary slightly from our data, if they occured in-between our weather recording intervals... More about our weather records

Advertising

Milan weather history for previous 24 hours

 ConditionsComfort  
Time TempWeatherWind HumidityBarometerVisibility
6:50 PM
Jan 25
45 °FClear.6 mph31%30.09 "Hg10 mi
6:20 PM46 °FClear.7 mph29%30.07 "Hg10 mi
5:50 PM46 °FClear.8 mph29%30.07 "Hg10 mi
5:20 PM48 °FClear.7 mph29%30.07 "Hg10 mi
4:50 PM50 °FSunny.9 mph28%30.04 "Hg10 mi
4:20 PM52 °FSunny.10 mph28%30.04 "Hg10 mi
3:50 PM52 °FPassing clouds.8 mph30%30.04 "HgN/A
3:20 PM54 °FPassing clouds.5 mph47%30.04 "HgN/A
2:50 PM54 °FSunny.6 mph44%30.01 "Hg10 mi
2:20 PM54 °FSunny.6 mph44%30.01 "Hg10 mi
1:50 PM54 °FPassing clouds.5 mph41%30.01 "HgN/A
1:20 PM54 °FSunny.2 mph35%30.04 "Hg10 mi
12:50 PM54 °FSunny.2 mph44%30.04 "Hg10 mi
12:20 PM50 °FSunny.2 mph47%30.04 "Hg10 mi
11:50 AM50 °FSunny.2 mph47%30.04 "Hg10 mi
11:20 AM48 °FSunny.2 mph58%30.07 "Hg10 mi
10:50 AM43 °FSunny.1 mph71%30.04 "Hg10 mi
10:20 AM39 °FSunny.2 mph81%30.04 "Hg10 mi
9:50 AM37 °FPassing clouds.3 mph87%30.04 "HgN/A
9:20 AM37 °FSunny.2 mph87%30.01 "Hg10 mi
8:50 AM34 °FSunny.2 mph93%30.01 "Hg10 mi
8:20 AM32 °FSunny.2 mph93%29.98 "Hg10 mi
7:50 AM28 °FClear.No wind100%29.98 "Hg10 mi
7:20 AM30 °FClear.No wind93%29.98 "Hg10 mi
6:50 AM30 °FClear.1 mph93%29.95 "Hg10 mi
6:20 AM28 °FClear.1 mph100%29.95 "Hg10 mi
5:50 AM30 °FClear.1 mph100%29.95 "Hg10 mi
5:20 AM28 °FClear.1 mph100%29.92 "Hg10 mi
4:20 AM32 °FFog.2 mph100%29.92 "HgN/A
3:50 AM30 °FFog.2 mph100%29.92 "HgN/A
3:20 AM30 °FFog.1 mph100%29.92 "HgN/A
2:50 AM34 °FFog.2 mph93%29.89 "HgN/A
1:50 AM32 °FLight fog.No wind93%29.89 "Hg3 mi
1:20 AM32 °FChilly.No wind100%29.89 "Hg2 mi
12:50 AM32 °FChilly.1 mph100%29.89 "HgN/A
12:20 AM34 °FFog.No wind100%29.89 "HgN/A
11:50 PM
Jan 24
34 °FFog.1 mph100%29.89 "HgN/A
11:20 PM34 °FFog.No wind100%29.86 "HgN/A
10:50 PM34 °FClear.2 mph100%29.86 "Hg10 mi
10:20 PM36 °FClear.2 mph100%29.86 "Hg10 mi
9:50 PM34 °FClear.2 mph100%29.86 "Hg10 mi
9:20 PM37 °FClear.1 mph100%29.83 "Hg10 mi
8:50 PM37 °FPassing clouds.3 mph100%29.83 "HgN/A
8:20 PM37 °FClear.3 mph93%29.83 "Hg10 mi
Weather by CustomWeather, © 2014

See weather overviewHow to use our weather pages